This is the latest recevied weather packets stored in our database for station/object WB6ANP. If no packets are shown the sender has not sent any weather packets the latest 10 day(s).
| Time | Temp. | Humidity | Pressure | Rain* | Wind** | Luminosity | Snow |
|---|---|---|---|---|---|---|---|
| 1777903265 | 17.78° C | 73% | 1012.2 hPa | 0 mm | - | 370 W/m² | - |
| 1777902962 | 17.78° C | 73% | 1012.3 hPa | 0 mm | - | 313 W/m² | - |
| 1777902659 | 17.78° C | 73% | 1012.4 hPa | 0 mm | - | 332 W/m² | - |
| 1777902356 | 17.78° C | 73% | 1012.4 hPa | 0 mm | - | 341 W/m² | - |
| 1777902053 | 17.78° C | 74% | 1012.3 hPa | 0 mm | - | 322 W/m² | - |
| 1777901751 | 17.78° C | 74% | 1012.4 hPa | 0 mm | - | 298 W/m² | - |
| 1777901448 | 17.22° C | 74% | 1012.5 hPa | 0 mm | - | 283 W/m² | - |
| 1777901146 | 17.22° C | 76% | 1012.2 hPa | 0 mm | - | 239 W/m² | - |
| 1777900844 | 16.67° C | 76% | 1012.2 hPa | 0 mm | - | 178 W/m² | - |
| 1777900540 | 16.67° C | 76% | 1012.2 hPa | 0 mm | - | 185 W/m² | - |
| 1777900237 | 16.67° C | 76% | 1012.2 hPa | 0 mm | - | 171 W/m² | - |
| 1777899934 | 16.67° C | 76% | 1012.4 hPa | 0 mm | - | 170 W/m² | - |
| 1777899631 | 16.67° C | 75% | 1012.3 hPa | 0 mm | - | 150 W/m² | - |
| 1777899328 | 16.67° C | 75% | 1012.4 hPa | 0 mm | - | 159 W/m² | - |
| 1777899026 | 16.67° C | 75% | 1012.5 hPa | 0 mm | - | 166 W/m² | - |
| 1777898722 | 16.11° C | 76% | 1012.3 hPa | 0 mm | - | 150 W/m² | - |
| 1777898420 | 16.11° C | 76% | 1012.3 hPa | 0 mm | - | 140 W/m² | - |
| 1777898118 | 15.56° C | 77% | 1012.4 hPa | 0 mm | - | 111 W/m² | - |
| 1777897814 | 15.56° C | 78% | 1012.3 hPa | 0 mm | - | 83 W/m² | - |
| 1777897510 | 15° C | 78% | 1012.3 hPa | 0 mm | - | 64 W/m² | - |
| 1777897206 | 15° C | 78% | 1012.2 hPa | 0 mm | - | 52 W/m² | - |
| 1777896901 | 15° C | 78% | 1012.3 hPa | 0 mm | - | 43 W/m² | - |
| 1777896600 | 15° C | 78% | 1011.9 hPa | 0 mm | - | 33 W/m² | - |
| 1777896296 | 15° C | 78% | 1012 hPa | 0 mm | - | 24 W/m² | - |
| 1777895995 | 15° C | 78% | 1012 hPa | 0 mm | - | 18 W/m² | - |
* Rain latest hour (hover to see other rain measurements)
** Current wind speed in m/s (hover to see current wind gust speed)